Dades meteomassalio
Diari Summary for Abril 11, 2017 Units:  English    Metric   Both
« Previous Day
Next Day »
Diari Semanal Mensual Anual Personalitzat
  Maxima: Minima: Mijana:
Temperatura: TemperatureC °F 7.0 °F 16.4 °F
Rosada: DewpointC °F -1.8 °F 5.1 °F
Humitat: Humidity % 17 % 52 %
Velocitat del vent: WindSpeedKMH mph 0.0 mph 9.3 mph
Racha vent: WindSpeedGustKMH mph - -
Vent:- - WNW
Pressio: PressurehPa in 1018.5 in -
Pluja: 0.0 in    
Historical Graphs
 
 
Tabular Data for Abril 11, 2017
Time Temperature Dew Point Pressure Wind Wind Speed Wind Gust Humidity Rainfall Rate (Hourly) solar Conditions
TemperatureC °F DewpointC °F PressurehPa in Calm     Humidity % HourlyPrecipMM in SolarRadiationWatts/m^2 W/m2 Conditions
00:03 11.8 °F 5.7 °F 1022.6 in Calm     66 % 0.0 in 0.0 W/m2 CLR
00:08 11.8 °F 5.8 °F 1022.6 in Calm     67 % 0.0 in 0.0 W/m2 CLR
00:13 11.7 °F 5.8 °F 1022.6 in Calm     67 % 0.0 in 0.0 W/m2 CLR
00:18 11.7 °F 5.8 °F 1022.6 in Calm     67 % 0.0 in 0.0 W/m2 CLR
00:23 11.6 °F 5.7 °F 1022.6 in Calm     67 % 0.0 in 0.0 W/m2 CLR
00:28 11.4 °F 5.7 °F 1022.6 in Calm     68 % 0.0 in 0.0 W/m2 CLR
00:33 11.2 °F 5.7 °F 1022.2 in Calm     69 % 0.0 in 0.0 W/m2 CLR
00:38 11.0 °F 5.7 °F 1022.2 in Calm     70 % 0.0 in 0.0 W/m2 CLR
00:43 10.9 °F 5.6 °F 1022.6 in Calm     70 % 0.0 in 0.0 W/m2 CLR
00:48 10.8 °F 5.8 °F 1022.6 in Calm     71 % 0.0 in 0.0 W/m2 CLR
00:53 10.8 °F 5.7 °F 1022.2 in Calm     71 % 0.0 in 0.0 W/m2 CLR
00:58 10.8 °F 5.8 °F 1022.6 in Calm     71 % 0.0 in 0.0 W/m2 CLR
01:03 10.9 °F 5.6 °F 1022.6 in Calm     70 % 0.0 in 0.0 W/m2 CLR
01:08 10.9 °F 5.6 °F 1022.6 in Calm     70 % 0.0 in 0.0 W/m2 CLR
01:13 10.7 °F 5.7 °F 1022.2 in Calm     71 % 0.0 in 0.0 W/m2 CLR
01:18 10.7 °F 5.9 °F 1022.2 in Calm     72 % 0.0 in 0.0 W/m2 CLR
01:23 10.9 °F 5.8 °F 1022.2 in Calm     71 % 0.0 in 0.0 W/m2 CLR
01:28 10.8 °F 5.7 °F 1022.2 in Calm     71 % 0.0 in 0.0 W/m2 CLR
01:33 10.8 °F 5.7 °F 1022.2 in Calm     71 % 0.0 in 0.0 W/m2 CLR
01:38 10.8 °F 5.7 °F 1022.2 in Calm     71 % 0.0 in 0.0 W/m2 CLR
01:43 10.7 °F 5.6 °F 1022.2 in Calm     71 % 0.0 in 0.0 W/m2 CLR
01:48 10.3 °F 5.5 °F 1022.2 in Calm     72 % 0.0 in 0.0 W/m2 CLR
01:53 10.2 °F 5.6 °F 1022.2 in Calm     73 % 0.0 in 0.0 W/m2 CLR
01:58 10.1 °F 5.6 °F 1022.2 in Calm     74 % 0.0 in 0.0 W/m2 CLR
02:03 10.0 °F 5.6 °F 1022.2 in Calm     74 % 0.0 in 0.0 W/m2 CLR
02:08 10.1 °F 5.8 °F 1022.2 in Calm     75 % 0.0 in 0.0 W/m2 CLR
02:13 10.2 °F 5.7 °F 1022.2 in Calm     74 % 0.0 in 0.0 W/m2 CLR
02:18 10.2 °F 5.8 °F 1022.2 in Calm     74 % 0.0 in 0.0 W/m2 CLR
02:23 10.1 °F 5.4 °F 1022.2 in Calm     73 % 0.0 in 0.0 W/m2 CLR
02:28 9.9 °F 5.5 °F 1022.2 in Calm     74 % 0.0 in 0.0 W/m2 CLR
02:33 9.8 °F 5.4 °F 1022.2 in Calm     74 % 0.0 in 0.0 W/m2 CLR
02:38 9.6 °F 5.4 °F 1021.9 in Calm     75 % 0.0 in 0.0 W/m2 CLR
02:43 9.6 °F 5.6 °F 1021.9 in Calm     76 % 0.0 in 0.0 W/m2 CLR
02:48 9.5 °F 5.5 °F 1021.9 in Calm     76 % 0.0 in 0.0 W/m2 CLR
02:53 9.4 °F 5.4 °F 1021.9 in Calm     76 % 0.0 in 0.0 W/m2 CLR
02:58 9.3 °F 5.5 °F 1021.9 in Calm     77 % 0.0 in 0.0 W/m2 CLR
03:03 9.3 °F 5.4 °F 1021.9 in Calm     77 % 0.0 in 0.0 W/m2 CLR
03:08 9.4 °F 5.6 °F 1021.9 in Calm     77 % 0.0 in 0.0 W/m2 CLR
03:13 9.4 °F 5.6 °F 1021.9 in Calm     77 % 0.0 in 0.0 W/m2 CLR
03:18 9.4 °F 5.6 °F 1021.9 in Calm     77 % 0.0 in 0.0 W/m2 CLR
03:23 9.3 °F 5.5 °F 1021.9 in Calm     77 % 0.0 in 0.0 W/m2 CLR
03:28 9.3 °F 5.4 °F 1021.9 in Calm     77 % 0.0 in 0.0 W/m2 CLR
03:33 9.1 °F 5.3 °F 1021.9 in Calm     77 % 0.0 in 0.0 W/m2 CLR
03:38 8.9 °F 5.3 °F 1021.9 in Calm     78 % 0.0 in 0.0 W/m2 CLR
03:43 8.8 °F 5.3 °F 1021.9 in Calm     79 % 0.0 in 0.0 W/m2 CLR
03:48 8.8 °F 5.3 °F 1021.9 in Calm     79 % 0.0 in 0.0 W/m2 CLR
03:53 8.8 °F 5.3 °F 1021.9 in Calm     79 % 0.0 in 0.0 W/m2 CLR
03:58 8.9 °F 5.5 °F 1021.9 in Calm     79 % 0.0 in 0.0 W/m2 CLR
04:03 8.9 °F 5.3 °F 1021.9 in Calm     78 % 0.0 in 0.0 W/m2 CLR
04:08 8.8 °F 5.4 °F 1021.9 in Calm     79 % 0.0 in 0.0 W/m2 CLR
04:13 8.8 °F 5.2 °F 1021.9 in Calm     78 % 0.0 in 0.0 W/m2 CLR
04:19 8.8 °F 5.4 °F 1021.6 in Calm     79 % 0.0 in 0.0 W/m2 CLR
04:24 8.8 °F 5.4 °F 1021.9 in WSW 3.7 mph 3.7 mph 79 % 0.0 in 0.0 W/m2 CLR
04:29 9.0 °F 5.6 °F 1021.9 in Calm     79 % 0.0 in 0.0 W/m2 CLR
04:34 9.0 °F 5.4 °F 1021.9 in Calm     78 % 0.0 in 0.0 W/m2 CLR
04:39 8.9 °F 5.3 °F 1021.9 in Calm     78 % 0.0 in 0.0 W/m2 CLR
04:44 8.9 °F 5.3 °F 1021.9 in Calm     78 % 0.0 in 0.0 W/m2 CLR
04:49 8.9 °F 5.4 °F 1021.9 in Calm     79 % 0.0 in 0.0 W/m2 CLR
04:54 9.0 °F 5.4 °F 1021.9 in Calm     78 % 0.0 in 0.0 W/m2 CLR
04:59 9.0 °F 5.6 °F 1021.9 in Calm     79 % 0.0 in 0.0 W/m2 CLR
05:04 8.9 °F 5.3 °F 1021.6 in Calm     78 % 0.0 in 0.0 W/m2 CLR
05:09 8.8 °F 5.2 °F 1021.6 in Calm     78 % 0.0 in 0.0 W/m2 CLR
05:14 8.7 °F 5.2 °F 1021.6 in Calm     79 % 0.0 in 0.0 W/m2 CLR
05:19 8.7 °F 5.2 °F 1021.6 in Calm     79 % 0.0 in 0.0 W/m2 CLR
05:24 8.8 °F 5.5 °F 1021.6 in Calm     80 % 0.0 in 0.0 W/m2 CLR
05:29 8.7 °F 5.3 °F 1021.6 in Calm     79 % 0.0 in 0.0 W/m2 CLR
05:34 8.7 °F 5.2 °F 1021.6 in Calm     79 % 0.0 in 0.0 W/m2 CLR
05:39 8.4 °F 5.0 °F 1021.6 in Calm     79 % 0.0 in 0.0 W/m2 CLR
05:44 8.4 °F 5.1 °F 1021.9 in Calm     80 % 0.0 in 0.0 W/m2 CLR
05:49 8.3 °F 5.1 °F 1021.6 in Calm     80 % 0.0 in 0.0 W/m2 CLR
05:54 8.2 °F 4.9 °F 1021.6 in Calm     80 % 0.0 in 0.0 W/m2 CLR
05:59 8.1 °F 5.1 °F 1021.9 in Calm     81 % 0.0 in 0.0 W/m2 CLR
06:04 8.2 °F 5.1 °F 1021.9 in Calm     81 % 0.0 in 0.0 W/m2 CLR
06:09 8.1 °F 5.1 °F 1021.9 in Calm     81 % 0.0 in 0.0 W/m2 CLR
06:14 8.0 °F 4.9 °F 1021.9 in Calm     81 % 0.0 in 0.0 W/m2 CLR
06:19 8.0 °F 5.1 °F 1021.9 in Calm     82 % 0.0 in 0.0 W/m2 CLR
06:24 8.0 °F 5.1 °F 1021.9 in Calm     82 % 0.0 in 0.0 W/m2 CLR
06:29 8.0 °F 5.1 °F 1021.9 in Calm     82 % 0.0 in 0.0 W/m2 CLR
06:34 8.1 °F 5.2 °F 1021.9 in Calm     82 % 0.0 in 0.0 W/m2 CLR
06:39 8.0 °F 4.9 °F 1021.9 in Calm     81 % 0.0 in 0.0 W/m2 CLR
06:44 7.8 °F 4.8 °F 1022.2 in Calm     81 % 0.0 in 0.0 W/m2 CLR
06:49 7.7 °F 4.8 °F 1022.2 in Calm     82 % 0.0 in 0.0 W/m2 CLR
06:54 7.8 °F 5.1 °F 1021.9 in SW 5.6 mph 5.6 mph 83 % 0.0 in 0.0 W/m2 CLR
06:59 8.1 °F 5.2 °F 1022.2 in Calm     82 % 0.0 in 0.0 W/m2 CLR
07:04 7.9 °F 4.8 °F 1022.2 in Calm     81 % 0.0 in 0.0 W/m2 CLR
07:09 7.6 °F 4.6 °F 1022.2 in Calm     81 % 0.0 in 0.0 W/m2 CLR
07:14 7.3 °F 4.4 °F 1022.2 in Calm     82 % 0.0 in 0.0 W/m2 CLR
07:19 7.1 °F 4.4 °F 1022.2 in Calm     83 % 0.0 in 0.0 W/m2 OVC
07:24 7.0 °F 4.3 °F 1022.2 in Calm     83 % 0.0 in 0.0 W/m2 OVC
07:29 7.1 °F 4.7 °F 1022.2 in Calm     85 % 0.0 in 5.0 W/m2 OVC
07:34 7.2 °F 4.8 °F 1022.6 in Calm     85 % 0.0 in 5.0 W/m2 OVC
07:39 7.1 °F 4.4 °F 1022.6 in Calm     83 % 0.0 in 11.0 W/m2 BKN
07:44 7.0 °F 4.5 °F 1022.6 in Calm     84 % 0.0 in 14.0 W/m2 BKN
07:49 7.0 °F 4.5 °F 1022.6 in Calm     84 % 0.0 in 18.0 W/m2 BKN
07:54 7.1 °F 4.7 °F 1022.6 in Calm     85 % 0.0 in 21.0 W/m2 BKN
07:59 7.2 °F 4.9 °F 1022.6 in Calm     85 % 0.0 in 26.0 W/m2 BKN
08:04 7.5 °F 4.9 °F 1022.6 in Calm     84 % 0.0 in 30.0 W/m2 BKN
08:10 7.6 °F 4.8 °F 1022.9 in Calm     83 % 0.0 in 35.0 W/m2 BKN
08:15 7.7 °F 5.2 °F 1022.9 in Calm     84 % 0.0 in 53.0 W/m2 SCT
08:20 8.1 °F 5.5 °F 1022.9 in Calm     84 % 0.0 in 67.0 W/m2 SCT
08:25 8.3 °F 5.6 °F 1022.9 in Calm     83 % 0.0 in 86.0 W/m2 FEW
08:30 8.7 °F 5.8 °F 1022.9 in Calm     82 % 0.0 in 104.0 W/m2 FEW
08:35 9.1 °F 5.9 °F 1022.9 in Calm     81 % 0.0 in 123.0 W/m2 CLR
08:40 9.4 °F 6.1 °F 1022.9 in Calm     80 % 0.0 in 139.0 W/m2 CLR
08:45 9.8 °F 6.4 °F 1022.9 in Calm     79 % 0.0 in 155.0 W/m2 CLR
08:50 10.3 °F 6.7 °F 1022.9 in Calm     78 % 0.0 in 171.0 W/m2 CLR
08:55 10.9 °F 7.0 °F 1022.9 in Calm     77 % 0.0 in 49.0 W/m2 CLR
09:00 11.4 °F 6.9 °F 1022.9 in Calm     74 % 0.0 in 176.0 W/m2 FEW
09:05 11.9 °F 7.2 °F 1022.9 in Calm     73 % 0.0 in 232.0 W/m2 FEW
09:10 12.5 °F 7.6 °F 1022.9 in Calm     72 % 0.0 in 250.0 W/m2 CLR
09:15 13.1 °F 7.6 °F 1022.9 in Calm     69 % 0.0 in 265.0 W/m2 CLR
09:20 13.8 °F 7.8 °F 1022.9 in Calm     67 % 0.0 in 283.0 W/m2 CLR
09:25 14.4 °F 7.9 °F 1022.6 in WNW 13.0 mph 13.0 mph 65 % 0.0 in 299.0 W/m2 CLR
09:30 15.2 °F 7.7 °F 1022.6 in West 11.1 mph 11.1 mph 61 % 0.0 in 315.0 W/m2 CLR
09:35 15.7 °F 7.7 °F 1022.6 in West 13.0 mph 13.0 mph 59 % 0.0 in 330.0 W/m2 CLR
09:40 15.9 °F 7.6 °F 1022.6 in NW 18.5 mph 18.5 mph 58 % 0.0 in 346.0 W/m2 CLR
09:45 16.1 °F 7.6 °F 1022.6 in WNW 22.2 mph 22.2 mph 57 % 0.0 in 366.0 W/m2 CLR
09:50 16.2 °F 7.4 °F 1022.6 in West 18.5 mph 18.5 mph 56 % 0.0 in 381.0 W/m2 CLR
09:55 16.2 °F 7.4 °F 1022.6 in WNW 16.7 mph 16.7 mph 56 % 0.0 in 397.0 W/m2 CLR
10:00 16.3 °F 7.3 °F 1022.6 in WNW 24.1 mph 24.1 mph 55 % 0.0 in 410.0 W/m2 CLR
10:05 16.5 °F 7.7 °F 1022.6 in NW 18.5 mph 18.5 mph 56 % 0.0 in 427.0 W/m2 CLR
10:10 16.6 °F 7.5 °F 1022.6 in NW 11.1 mph 11.1 mph 55 % 0.0 in 443.0 W/m2 CLR
10:15 16.7 °F 7.6 °F 1022.6 in WNW 18.5 mph 18.5 mph 55 % 0.0 in 459.0 W/m2 CLR
10:20 16.8 °F 7.2 °F 1022.6 in West 22.2 mph 22.2 mph 53 % 0.0 in 475.0 W/m2 CLR
10:25 16.8 °F 7.7 °F 1022.6 in NNW 13.0 mph 13.0 mph 55 % 0.0 in 489.0 W/m2 CLR
10:30 17.1 °F 8.0 °F 1022.6 in WNW 19.3 mph 19.3 mph 55 % 0.0 in 506.0 W/m2 CLR
10:35 17.1 °F 7.7 °F 1022.6 in WNW 14.8 mph 14.8 mph 54 % 0.0 in 520.0 W/m2 CLR
10:40 17.2 °F 8.1 °F 1022.9 in NW 13.0 mph 13.0 mph 55 % 0.0 in 534.0 W/m2 CLR
10:45 17.3 °F 7.9 °F 1022.6 in WNW 13.0 mph 13.0 mph 54 % 0.0 in 548.0 W/m2 CLR
10:50 17.4 °F 7.7 °F 1022.6 in WSW 14.8 mph 14.8 mph 53 % 0.0 in 566.0 W/m2 CLR
10:55 17.6 °F 8.2 °F 1022.6 in NW 14.8 mph 14.8 mph 54 % 0.0 in 578.0 W/m2 CLR
11:00 17.8 °F 8.1 °F 1022.6 in WNW 14.8 mph 14.8 mph 53 % 0.0 in 592.0 W/m2 CLR
11:05 17.8 °F 7.8 °F 1022.6 in WNW 16.7 mph 16.7 mph 52 % 0.0 in 605.0 W/m2 CLR
11:10 18.0 °F 8.3 °F 1022.6 in NW 18.5 mph 18.5 mph 53 % 0.0 in 624.0 W/m2 CLR
11:15 18.1 °F 8.1 °F 1022.6 in WSW 6.4 mph 6.4 mph 52 % 0.0 in 635.0 W/m2 CLR
11:20 18.3 °F 8.3 °F 1022.6 in WSW 7.4 mph 7.4 mph 52 % 0.0 in 647.0 W/m2 CLR
11:25 18.6 °F 8.5 °F 1022.6 in NW 11.1 mph 11.1 mph 52 % 0.0 in 659.0 W/m2 CLR
11:30 18.6 °F 8.6 °F 1022.6 in NW 18.5 mph 18.5 mph 52 % 0.0 in 673.0 W/m2 CLR
11:35 18.6 °F 8.2 °F 1022.6 in West 22.5 mph 22.5 mph 51 % 0.0 in 684.0 W/m2 CLR
11:40 18.5 °F 8.2 °F 1022.6 in WNW 4.8 mph 4.8 mph 51 % 0.0 in 694.0 W/m2 CLR
11:45 18.7 °F 8.1 °F 1022.6 in WNW 18.5 mph 18.5 mph 50 % 0.0 in 707.0 W/m2 CLR
11:50 18.7 °F 8.1 °F 1022.6 in WNW 22.2 mph 22.2 mph 50 % 0.0 in 717.0 W/m2 CLR
11:55 18.8 °F 8.4 °F 1022.6 in West 9.3 mph 9.3 mph 51 % 0.0 in 728.0 W/m2 CLR
12:00 19.1 °F 8.7 °F 1022.6 in WNW 20.4 mph 20.4 mph 51 % 0.0 in 740.0 W/m2 CLR
12:05 19.2 °F 8.5 °F 1022.6 in NW 24.1 mph 24.1 mph 50 % 0.0 in 747.0 W/m2 CLR
12:10 19.4 °F 8.1 °F 1022.2 in West 18.5 mph 18.5 mph 48 % 0.0 in 756.0 W/m2 CLR
12:15 19.6 °F 8.3 °F 1022.2 in WNW 20.4 mph 20.4 mph 48 % 0.0 in 770.0 W/m2 CLR
12:20 19.7 °F 8.3 °F 1022.2 in WNW 11.3 mph 11.3 mph 48 % 0.0 in 775.0 W/m2 CLR
12:25 19.6 °F 8.3 °F 1022.2 in WNW 19.3 mph 19.3 mph 48 % 0.0 in 782.0 W/m2 CLR
12:30 19.8 °F 8.5 °F 1022.2 in WNW 5.6 mph 5.6 mph 48 % 0.0 in 789.0 W/m2 CLR
12:35 20.0 °F 8.3 °F 1022.2 in WSW 20.9 mph 20.9 mph 47 % 0.0 in 798.0 W/m2 CLR
12:40 20.2 °F 9.1 °F 1022.2 in NW 14.8 mph 14.8 mph 49 % 0.0 in 807.0 W/m2 CLR
12:45 20.3 °F 8.6 °F 1021.9 in WSW 18.5 mph 18.5 mph 47 % 0.0 in 807.0 W/m2 CLR
12:50 20.4 °F 9.0 °F 1022.2 in West 16.7 mph 16.7 mph 48 % 0.0 in 816.0 W/m2 CLR
12:55 20.5 °F 8.5 °F 1021.9 in WNW 18.5 mph 18.5 mph 46 % 0.0 in 821.0 W/m2 CLR
13:00 20.7 °F 9.3 °F 1021.9 in NNW 20.4 mph 20.4 mph 48 % 0.0 in 823.0 W/m2 CLR
13:05 20.8 °F 9.1 °F 1021.6 in WSW 24.1 mph 24.1 mph 47 % 0.0 in 830.0 W/m2 CLR
13:10 20.8 °F 9.1 °F 1021.9 in NNW 16.1 mph 16.1 mph 47 % 0.0 in 835.0 W/m2 CLR
13:15 20.9 °F 9.2 °F 1021.9 in NW 16.7 mph 16.7 mph 47 % 0.0 in 835.0 W/m2 CLR
13:20 21.1 °F 9.3 °F 1021.6 in WSW 5.6 mph 5.6 mph 47 % 0.0 in 844.0 W/m2 CLR
13:25 21.3 °F 8.8 °F 1021.6 in WNW 18.5 mph 18.5 mph 45 % 0.0 in 842.0 W/m2 CLR
13:30 21.4 °F 9.3 °F 1021.6 in NW 22.2 mph 22.2 mph 46 % 0.0 in 849.0 W/m2 CLR
13:35 21.5 °F 9.1 °F 1021.6 in WNW 5.6 mph   45 % 0.0 in 847.0 W/m2 CLR
13:40 21.8 °F 9.3 °F 1021.2 in NW 20.4 mph 20.4 mph 45 % 0.0 in 847.0 W/m2 CLR
13:45 21.7 °F 8.9 °F 1021.2 in NNW 20.4 mph 20.4 mph 44 % 0.0 in 853.0 W/m2 CLR
13:50 21.9 °F 8.4 °F 1021.2 in North 13.0 mph 13.0 mph 42 % 0.0 in 856.0 W/m2 CLR
13:55 22.2 °F 9.0 °F 1020.9 in West 18.5 mph 18.5 mph 43 % 0.0 in 856.0 W/m2 CLR
14:00 22.3 °F 9.1 °F 1020.9 in WNW 18.5 mph 18.5 mph 43 % 0.0 in 856.0 W/m2 CLR
14:05 22.4 °F 8.8 °F 1020.9 in NNW 22.2 mph 22.2 mph 42 % 0.0 in 853.0 W/m2 CLR
14:10 22.5 °F 8.6 °F 1020.9 in NW 20.4 mph 20.4 mph 41 % 0.0 in 856.0 W/m2 CLR
14:11 22.5 °F 8.6 °F 1020.9 in West 9.3 mph 9.3 mph 41 % 0.0 in 854.0 W/m2 CLR
14:16 22.7 °F 8.4 °F 1020.9 in NW 25.9 mph 25.9 mph 40 % 0.0 in 853.0 W/m2 CLR
14:21 22.8 °F 8.9 °F 1020.9 in NNW 13.0 mph 13.0 mph 41 % 0.0 in 849.0 W/m2 CLR
14:26 23.0 °F 8.7 °F 1020.9 in WNW 18.5 mph 18.5 mph 40 % 0.0 in 849.0 W/m2 CLR
14:31 23.1 °F 8.8 °F 1020.9 in NW 11.1 mph 11.1 mph 40 % 0.0 in 846.0 W/m2 CLR
14:36 23.2 °F 8.9 °F 1020.9 in North 20.4 mph 20.4 mph 40 % 0.0 in 842.0 W/m2 CLR
14:41 23.3 °F 8.9 °F 1020.5 in NNW 18.5 mph 18.5 mph 40 % 0.0 in 840.0 W/m2 CLR
14:46 23.4 °F 8.7 °F 1020.5 in NW 19.3 mph 19.3 mph 39 % 0.0 in 838.0 W/m2 CLR
14:51 23.4 °F 8.3 °F 1020.5 in WNW 22.5 mph 22.5 mph 38 % 0.0 in 837.0 W/m2 CLR
14:56 23.5 °F 8.3 °F 1020.5 in NW 24.1 mph 24.1 mph 38 % 0.0 in 826.0 W/m2 CLR
15:01 23.6 °F 8.4 °F 1020.5 in NW 20.4 mph 20.4 mph 38 % 0.0 in 824.0 W/m2 CLR
15:07 23.8 °F 8.6 °F 1020.5 in NNW 25.9 mph 25.9 mph 38 % 0.0 in 823.0 W/m2 CLR
15:12 23.7 °F 8.6 °F 1020.5 in NW 24.1 mph 24.1 mph 38 % 0.0 in 819.0 W/m2 CLR
15:17 23.7 °F 8.6 °F 1020.2 in NW 18.5 mph 18.5 mph 38 % 0.0 in 812.0 W/m2 CLR
15:22 23.9 °F 8.3 °F 1020.2 in WNW 25.9 mph 25.9 mph 37 % 0.0 in 800.0 W/m2 CLR
15:27 23.9 °F 8.8 °F 1020.2 in WNW 24.1 mph 24.1 mph 38 % 0.0 in 802.0 W/m2 CLR
15:32 24.0 °F 8.4 °F 1020.2 in NW 27.8 mph 27.8 mph 37 % 0.0 in 788.0 W/m2 CLR
15:37 24.1 °F 8.1 °F 1020.2 in NW 22.2 mph 22.2 mph 36 % 0.0 in 791.0 W/m2 CLR
15:42 24.2 °F 7.7 °F 1019.9 in WNW 14.8 mph 14.8 mph 35 % 0.0 in 777.0 W/m2 CLR
15:47 24.3 °F 7.9 °F 1019.9 in North 18.5 mph 18.5 mph 35 % 0.0 in 779.0 W/m2 CLR
15:52 24.6 °F 8.1 °F 1019.9 in North 18.5 mph 18.5 mph 35 % 0.0 in 765.0 W/m2 CLR
15:57 24.6 °F 8.1 °F 1019.9 in North 17.7 mph 17.7 mph 35 % 0.0 in 752.0 W/m2 CLR
16:02 24.8 °F 7.0 °F 1019.9 in NNW 25.9 mph 25.9 mph 32 % 0.0 in 747.0 W/m2 CLR
16:07 24.6 °F 6.3 °F 1019.9 in NW 24.1 mph 24.1 mph 31 % 0.0 in 735.0 W/m2 CLR
16:12 24.6 °F 7.2 °F 1019.5 in NNW 9.3 mph 9.3 mph 33 % 0.0 in 731.0 W/m2 CLR
16:17 24.9 °F 7.1 °F 1019.5 in NNW 22.2 mph 22.2 mph 32 % 0.0 in 728.0 W/m2 CLR
16:22 25.1 °F 6.8 °F 1019.5 in NNE 18.5 mph 18.5 mph 31 % 0.0 in 721.0 W/m2 CLR
16:27 25.1 °F 5.8 °F 1019.5 in WNW 11.1 mph 11.1 mph 29 % 0.0 in 694.0 W/m2 CLR
16:32 25.1 °F 6.3 °F 1019.5 in NNE 16.7 mph 16.7 mph 30 % 0.0 in 698.0 W/m2 CLR
16:37 25.1 °F 4.2 °F 1019.2 in NW 20.4 mph 20.4 mph 26 % 0.0 in 686.0 W/m2 CLR
16:42 25.1 °F 3.7 °F 1019.2 in WNW 19.3 mph 19.3 mph 25 % 0.0 in 670.0 W/m2 CLR
16:47 25.1 °F 3.1 °F 1019.2 in NNW 25.9 mph 25.9 mph 24 % 0.0 in 661.0 W/m2 CLR
16:52 25.0 °F 3.6 °F 1019.2 in NNW 20.4 mph 20.4 mph 25 % 0.0 in 643.0 W/m2 CLR
16:57 24.8 °F 3.4 °F 1019.2 in NNW 18.5 mph 18.5 mph 25 % 0.0 in 633.0 W/m2 CLR
17:02 25.1 °F 4.2 °F 1019.2 in NNW 17.7 mph 17.7 mph 26 % 0.0 in 621.0 W/m2 CLR
17:07 25.1 °F 4.2 °F 1018.8 in NW 18.5 mph 18.5 mph 26 % 0.0 in 603.0 W/m2 CLR
17:12 25.1 °F 4.7 °F 1018.8 in NW 8.0 mph 8.0 mph 27 % 0.0 in 591.0 W/m2 CLR
17:17 25.1 °F 3.1 °F 1018.8 in NW 24.1 mph 24.1 mph 24 % 0.0 in 577.0 W/m2 CLR
17:22 25.1 °F 4.2 °F 1018.8 in NNW 18.5 mph 18.5 mph 26 % 0.0 in 561.0 W/m2 CLR
17:27 25.2 °F 3.8 °F 1018.8 in NW 22.2 mph 22.2 mph 25 % 0.0 in 548.0 W/m2 CLR
17:32 25.1 °F 1.8 °F 1018.8 in NW 22.2 mph 22.2 mph 22 % 0.0 in 538.0 W/m2 CLR
17:37 24.9 °F 1.7 °F 1018.5 in North 20.9 mph 20.9 mph 22 % 0.0 in 526.0 W/m2 CLR
17:42 25.0 °F 0.4 °F 1018.5 in WNW 19.3 mph 19.3 mph 20 % 0.0 in 508.0 W/m2 CLR
17:47 25.1 °F 0.6 °F 1018.5 in NW 20.4 mph 20.4 mph 20 % 0.0 in 494.0 W/m2 CLR
17:52 25.2 °F 0.7 °F 1018.5 in WNW 16.7 mph 16.7 mph 20 % 0.0 in 478.0 W/m2 CLR
17:57 25.2 °F 0.6 °F 1018.5 in North 24.1 mph 24.1 mph 20 % 0.0 in 466.0 W/m2 CLR
18:02 25.1 °F 1.2 °F 1018.5 in NNW 18.5 mph 18.5 mph 21 % 0.0 in 452.0 W/m2 CLR
18:07 25.0 °F 0.4 °F 1018.5 in NW 25.9 mph 25.9 mph 20 % 0.0 in 427.0 W/m2 CLR
18:12 24.9 °F 1.7 °F 1018.5 in North 17.7 mph 17.7 mph 22 % 0.0 in 417.0 W/m2 CLR
18:17 25.1 °F -0.2 °F 1018.5 in NNE 13.0 mph 13.0 mph 19 % 0.0 in 401.0 W/m2 CLR
18:22 25.2 °F -1.6 °F 1018.5 in WNW 27.8 mph 27.8 mph 17 % 0.0 in 387.0 W/m2 CLR
18:27 24.9 °F -1.8 °F 1018.5 in NNW 20.4 mph 20.4 mph 17 % 0.0 in 366.0 W/m2 CLR
18:32 24.9 °F -0.3 °F 1018.5 in NW 13.0 mph 13.0 mph 19 % 0.0 in 348.0 W/m2 CLR
18:37 24.9 °F 0.4 °F 1018.5 in NW 18.5 mph 18.5 mph 20 % 0.0 in 334.0 W/m2 CLR
18:42 24.7 °F -1.2 °F 1018.5 in NNW 22.2 mph 22.2 mph 18 % 0.0 in 318.0 W/m2 CLR
18:47 24.7 °F -1.3 °F 1018.5 in NW 20.4 mph 20.4 mph 18 % 0.0 in 295.0 W/m2 CLR
18:52 24.6 °F -0.6 °F 1018.5 in WNW 6.4 mph 6.4 mph 19 % 0.0 in 281.0 W/m2 CLR
18:57 24.7 °F -1.2 °F 1018.5 in NNW 18.5 mph 18.5 mph 18 % 0.0 in 265.0 W/m2 CLR
19:02 24.7 °F -0.5 °F 1018.5 in NNW 14.8 mph 14.8 mph 19 % 0.0 in 244.0 W/m2 CLR
19:07 24.5 °F 0.1 °F 1018.5 in NW 20.4 mph 20.4 mph 20 % 0.0 in 221.0 W/m2 CLR
19:12 24.3 °F 0.6 °F 1018.5 in NW 24.1 mph 24.1 mph 21 % 0.0 in 202.0 W/m2 CLR
19:17 24.2 °F -0.2 °F 1018.5 in NNW 20.4 mph 20.4 mph 20 % 0.0 in 185.0 W/m2 CLR
19:22 24.1 °F -0.3 °F 1018.5 in NNW 20.9 mph 20.9 mph 20 % 0.0 in 167.0 W/m2 CLR
19:27 24.0 °F -0.4 °F 1018.5 in NW 20.9 mph 20.9 mph 20 % 0.0 in 148.0 W/m2 CLR
19:32 23.9 °F -0.4 °F 1018.5 in NW 16.7 mph 16.7 mph 20 % 0.0 in 127.0 W/m2 CLR
19:37 23.8 °F -0.5 °F 1018.5 in WNW 18.5 mph 18.5 mph 20 % 0.0 in 109.0 W/m2 CLR
19:42 23.7 °F 0.1 °F 1018.5 in NNW 16.7 mph 16.7 mph 21 % 0.0 in 93.0 W/m2 CLR
19:47 23.6 °F 0.6 °F 1018.5 in NW 16.7 mph 16.7 mph 22 % 0.0 in 77.0 W/m2 FEW
19:52 23.4 °F 0.4 °F 1018.5 in NNW 14.8 mph 14.8 mph 22 % 0.0 in 49.0 W/m2 SCT
19:57 23.3 °F 0.4 °F 1018.5 in NW 5.6 mph 5.6 mph 22 % 0.0 in 46.0 W/m2 SCT
20:02 23.1 °F 0.2 °F 1018.5 in NW 13.0 mph 13.0 mph 22 % 0.0 in 37.0 W/m2 BKN
20:07 22.9 °F 0.7 °F 1018.5 in NW 5.6 mph 5.6 mph 23 % 0.0 in 26.0 W/m2 BKN
20:12 22.7 °F 1.1 °F 1018.5 in Calm     24 % 0.0 in 16.0 W/m2 BKN
20:17 22.2 °F 1.2 °F 1018.5 in Calm     25 % 0.0 in 14.0 W/m2 BKN
20:22 21.9 °F 0.4 °F 1018.5 in NW 5.6 mph 5.6 mph 24 % 0.0 in 11.0 W/m2 BKN
20:27 21.6 °F 0.7 °F 1018.5 in Calm     25 % 0.0 in 9.0 W/m2 BKN
20:32 21.1 °F 0.8 °F 1018.5 in Calm     26 % 0.0 in 7.0 W/m2 BKN
20:37 20.6 °F 0.9 °F 1018.5 in Calm     27 % 0.0 in 0.0 W/m2 OVC
20:42 20.2 °F 1.1 °F 1018.5 in Calm     28 % 0.0 in 0.0 W/m2 OVC
20:47 19.8 °F 0.8 °F 1018.5 in Calm     28 % 0.0 in 0.0 W/m2 CLR
20:52 19.5 °F 1.0 °F 1018.8 in Calm     29 % 0.0 in 0.0 W/m2 CLR
20:57 19.2 °F 1.2 °F 1018.8 in Calm     30 % 0.0 in 0.0 W/m2 CLR
21:02 18.9 °F 1.4 °F 1018.8 in Calm     31 % 0.0 in 0.0 W/m2 CLR
21:07 18.7 °F 1.2 °F 1018.8 in Calm     31 % 0.0 in 0.0 W/m2 CLR
21:12 18.4 °F 1.8 °F 1019.2 in Calm     33 % 0.0 in 0.0 W/m2 CLR
21:17 18.3 °F 1.7 °F 1019.2 in Calm     33 % 0.0 in 0.0 W/m2 CLR
21:22 18.1 °F 2.0 °F 1019.2 in Calm     34 % 0.0 in 0.0 W/m2 CLR
21:27 18.1 °F 1.5 °F 1019.5 in West 5.6 mph 5.6 mph 33 % 0.0 in 0.0 W/m2 CLR
21:32 18.3 °F 1.3 °F 1019.5 in West 1.9 mph 1.9 mph 32 % 0.0 in 0.0 W/m2 CLR
21:37 18.3 °F 1.3 °F 1019.5 in West 1.9 mph 1.9 mph 32 % 0.0 in 0.0 W/m2 CLR
21:42 18.3 °F 1.3 °F 1019.5 in Calm     32 % 0.0 in 0.0 W/m2 CLR
21:48 17.8 °F 1.3 °F 1019.9 in West 5.6 mph 5.6 mph 33 % 0.0 in 0.0 W/m2 CLR
21:52 17.9 °F 0.9 °F 1019.9 in West 11.3 mph 11.3 mph 32 % 0.0 in 0.0 W/m2 CLR
21:58 18.3 °F 0.8 °F 1019.9 in West 9.3 mph 9.3 mph 31 % 0.0 in 0.0 W/m2 CLR
22:03 18.3 °F 0.8 °F 1019.9 in West 5.6 mph 5.6 mph 31 % 0.0 in 0.0 W/m2 CLR
22:07 18.1 °F 1.1 °F 1019.9 in Calm     32 % 0.0 in 0.0 W/m2 CLR
22:13 17.9 °F 1.4 °F 1020.2 in West 6.4 mph 6.4 mph 33 % 0.0 in 0.0 W/m2 CLR
22:18 18.1 °F 1.5 °F 1020.2 in West 12.9 mph 12.9 mph 33 % 0.0 in 0.0 W/m2 CLR
22:23 18.3 °F 1.7 °F 1020.2 in West 9.7 mph 9.7 mph 33 % 0.0 in 0.0 W/m2 CLR
22:28 18.1 °F 1.6 °F 1020.2 in West 9.3 mph 9.3 mph 33 % 0.0 in 0.0 W/m2 CLR
22:33 17.9 °F 1.8 °F 1020.2 in WSW 11.1 mph 11.1 mph 34 % 0.0 in 0.0 W/m2 CLR
22:38 17.8 °F 2.2 °F 1020.2 in WSW 7.4 mph 7.4 mph 35 % 0.0 in 0.0 W/m2 CLR
22:43 17.6 °F 1.9 °F 1020.2 in West 5.6 mph 5.6 mph 35 % 0.0 in 0.0 W/m2 CLR
22:48 17.4 °F 2.6 °F 1020.5 in West 9.3 mph 9.3 mph 37 % 0.0 in 0.0 W/m2 CLR
22:53 17.6 °F 2.7 °F 1020.5 in West 11.3 mph 11.3 mph 37 % 0.0 in 0.0 W/m2 CLR
22:58 17.7 °F 2.8 °F 1020.2 in West 14.8 mph 14.8 mph 37 % 0.0 in 0.0 W/m2 CLR
23:03 17.7 °F 2.8 °F 1020.2 in WNW 11.1 mph 11.1 mph 37 % 0.0 in 0.0 W/m2 CLR
23:08 17.6 °F 3.1 °F 1020.2 in West 14.8 mph 14.8 mph 38 % 0.0 in 0.0 W/m2 CLR
23:13 17.6 °F 3.1 °F 1020.5 in WNW 20.4 mph 20.4 mph 38 % 0.0 in 0.0 W/m2 CLR
23:18 17.6 °F 3.4 °F 1020.2 in WNW 18.5 mph 18.5 mph 39 % 0.0 in 0.0 W/m2 CLR
23:23 17.7 °F 3.6 °F 1020.2 in West 18.5 mph 18.5 mph 39 % 0.0 in 0.0 W/m2 CLR
23:28 17.6 °F 3.8 °F 1020.2 in West 18.5 mph 18.5 mph 40 % 0.0 in 0.0 W/m2 CLR
23:33 17.6 °F 3.8 °F 1020.2 in WNW 22.2 mph 22.2 mph 40 % 0.0 in 0.0 W/m2 CLR
23:38 17.7 °F 3.9 °F 1020.2 in WNW 20.4 mph 20.4 mph 40 % 0.0 in 0.0 W/m2 CLR
23:43 17.7 °F 3.9 °F 1020.5 in West 18.5 mph 18.5 mph 40 % 0.0 in 0.0 W/m2 CLR
23:48 17.7 °F 3.9 °F 1020.5 in WNW 19.3 mph 19.3 mph 40 % 0.0 in 0.0 W/m2 CLR
23:53 17.7 °F 3.9 °F 1020.5 in West 22.2 mph 22.2 mph 40 % 0.0 in 0.0 W/m2 CLR
23:58 17.6 °F 4.2 °F 1020.5 in WNW 18.5 mph 18.5 mph 41 % 0.0 in 0.0 W/m2 CLR
Lo Temps de Massalio
Compliments of Weather Underground - 1.25 mb